When you browse on this site, cookies collect data to enhance your experience and personalize the content and advertising you see.
Visit our Privacy Policy to learn more. By continuing to use the site, you agree to this use of cookies and data.
  • In Slovakia
  • List of Countries
  • For 7 days
  • Water Temperature
  • Satellite Maps
  • Weather Map
  • Weather Widgets
  • user-avatar
    Login

    Hourly Weather Nuernberg

    Today, 16 January, Wednesday

    Time Temperature Precipitation Wind Pressure Humidity
    00:00 +1°C° 0 mm 5 mps 735 mmHg 85%
    01:00 +1°C° 0 mm 4 mps 735 mmHg 85%
    02:00 0°C° 0 mm 4 mps 735 mmHg 87%
    03:00 0°C° 0 mm 4 mps 735 mmHg 88%
    04:00 -1°C° 0 mm 4 mps 734 mmHg 90%
    05:00 0°C° 0 mm 3 mps 734 mmHg 91%
    06:00 -1°C° 0 mm 3 mps 734 mmHg 92%
    07:00 -1°C° 0 mm 2 mps 734 mmHg 94%
    08:00 +1°C° 0 mm 2 mps 733 mmHg 91%
    09:00 0°C° 0 mm 3 mps 733 mmHg 88%
    10:00 +1°C° 0 mm 3 mps 733 mmHg 84%
    11:00 +2°C° 0 mm 3 mps 733 mmHg 79%
    12:00 +3°C° 0 mm 3 mps 732 mmHg 74%
    13:00 +5°C° 0 mm 2 mps 732 mmHg 74%
    14:00 +4°C° 0 mm 2 mps 731 mmHg 76%
    15:00 +4°C° 0 mm 2 mps 730 mmHg 78%
    16:00 +4°C° 0 mm 2 mps 730 mmHg 79%
    17:00 +3°C° 0 mm 2 mps 729 mmHg 82%
    18:00 +2°C° 0 mm 2 mps 729 mmHg 84%
    19:00 +1°C° 0 mm 2 mps 728 mmHg 86%
    20:00 +1°C° 0 mm 2 mps 728 mmHg 84%
    21:00 +1°C° 0 mm 2 mps 728 mmHg 82%
    22:00 0°C° 0 mm 3 mps 728 mmHg 80%
    23:00 0°C° 0 mm 3 mps 727 mmHg 78%

    Tomorrow, 17 January, Thursday

    Time Temperature Precipitation Wind Pressure Humidity
    00:00 +1°C° 0 mm 3 mps 727 mmHg 76%
    01:00 +1°C° 0 mm 3 mps 727 mmHg 75%
    02:00 0°C° 0 mm 4 mps 727 mmHg 77%
    03:00 +1°C° 0 mm 4 mps 727 mmHg 79%
    04:00 +1°C° 0 mm 4 mps 726 mmHg 81%
    05:00 +1°C° 0 mm 5 mps 726 mmHg 82%
    06:00 +1°C° 0 mm 5 mps 726 mmHg 84%
    07:00 +1°C° 0 mm 5 mps 726 mmHg 85%
    08:00 +2°C° 0.3 mm 5 mps 726 mmHg 85%
    09:00 +2°C° 0.3 mm 5 mps 726 mmHg 85%
    10:00 +3°C° 0.3 mm 4 mps 726 mmHg 85%
    11:00 +3°C° 0.1 mm 5 mps 726 mmHg 84%
    12:00 +3°C° 0.1 mm 5 mps 726 mmHg 84%
    13:00 +5°C° 0.1 mm 5 mps 726 mmHg 83%
    14:00 +3°C° 0.1 mm 5 mps 726 mmHg 82%
    15:00 +3°C° 0.1 mm 5 mps 726 mmHg 81%
    16:00 +3°C° 0.1 mm 5 mps 726 mmHg 79%
    17:00 +3°C° 0.1 mm 5 mps 726 mmHg 79%
    18:00 +2°C° 0.1 mm 6 mps 727 mmHg 79%
    19:00 +1°C° 0.1 mm 6 mps 727 mmHg 79%
    20:00 +1°C° 0.4 mm 6 mps 728 mmHg 80%
    21:00 +1°C° 0.4 mm 6 mps 729 mmHg 80%
    22:00 0°C° 0.4 mm 5 mps 729 mmHg 80%
    23:00 -1°C° 0 mm 5 mps 730 mmHg 82%

    Day after tomorrow, 18 January, Friday

    Time Temperature Precipitation Wind Pressure Humidity
    00:00 -1°C° 0 mm 4 mps 731 mmHg 83%
    01:00 -2°C° 0 mm 4 mps 731 mmHg 84%
    02:00 -2°C° 0 mm 4 mps 732 mmHg 83%
    03:00 -3°C° 0 mm 4 mps 732 mmHg 83%
    04:00 -3°C° 0 mm 4 mps 733 mmHg 82%
    05:00 -3°C° 0 mm 4 mps 733 mmHg 83%
    06:00 -3°C° 0 mm 4 mps 734 mmHg 84%
    07:00 -2°C° 0 mm 3 mps 734 mmHg 85%
    08:00 -2°C° 0 mm 3 mps 735 mmHg 83%
    09:00 -2°C° 0 mm 3 mps 736 mmHg 81%
    10:00 -1°C° 0 mm 2 mps 736 mmHg 79%
    11:00 -1°C° 0 mm 2 mps 736 mmHg 72%
    12:00 +2°C° 0 mm 1 mps 736 mmHg 65%
    13:00 +3°C° 0 mm 1 mps 736 mmHg 57%
    14:00 +2°C° 0 mm 1 mps 736 mmHg 59%
    15:00 +2°C° 0 mm 1 mps 736 mmHg 62%
    16:00 +2°C° 0 mm 1 mps 736 mmHg 64%
    17:00 +1°C° 0 mm 1 mps 736 mmHg 67%
    18:00 0°C° 0 mm 1 mps 736 mmHg 71%
    19:00 -1°C° 0 mm 1 mps 736 mmHg 75%
    20:00 -1°C° 0 mm 1 mps 736 mmHg 76%
    21:00 -1°C° 0 mm 1 mps 736 mmHg 77%
    22:00 -1°C° 0 mm 1 mps 736 mmHg 78%
    23:00 -1°C° 0 mm 1 mps 736 mmHg 77%

    19 January, Saturday

    Time Temperature Precipitation Wind Pressure Humidity
    00:00 -3°C° 0 mm 2 mps 736 mmHg 77%
    01:00 -3°C° 0 mm 2 mps 736 mmHg 77%
    02:00 -2°C° 0 mm 1 mps 735 mmHg 77%
    03:00 -2°C° 0 mm 1 mps 735 mmHg 77%
    04:00 -2°C° 0 mm 1 mps 735 mmHg 77%
    05:00 -2°C° 0 mm 1 mps 735 mmHg 76%
    06:00 -2°C° 0 mm 1 mps 735 mmHg 75%
    07:00 -2°C° 0 mm 1 mps 735 mmHg 74%
    08:00 -2°C° 0 mm 1 mps 734 mmHg 70%
    09:00 -3°C° 0 mm 2 mps 734 mmHg 66%
    10:00 -3°C° 0 mm 2 mps 734 mmHg 62%
    11:00 -2°C° 0 mm 2 mps 734 mmHg 58%
    12:00 -1°C° 0 mm 2 mps 733 mmHg 53%
    13:00 +1°C° 0 mm 2 mps 733 mmHg 49%
    14:00 +1°C° 0 mm 2 mps 733 mmHg 53%
    15:00 +2°C° 0 mm 1 mps 732 mmHg 56%
    16:00 +1°C° 0 mm 1 mps 732 mmHg 60%
    17:00 0°C° 0 mm 1 mps 732 mmHg 65%
    18:00 -1°C° 0 mm 1 mps 732 mmHg 70%
    19:00 -1°C° 0 mm 1 mps 732 mmHg 75%
    20:00 -2°C° 0 mm 1 mps 732 mmHg 77%
    21:00 -2°C° 0 mm 1 mps 732 mmHg 80%
    22:00 -2°C° 0 mm 1 mps 732 mmHg 82%
    23:00 -2°C° 0 mm 1 mps 732 mmHg 84%

    20 January, Sunday

    Time Temperature Precipitation Wind Pressure Humidity
    00:00 -2°C° 0 mm 1 mps 732 mmHg 85%
    01:00 -2°C° 0 mm 1 mps 732 mmHg 87%
    02:00 -2°C° 0 mm 1 mps 732 mmHg 87%
    03:00 -2°C° 0 mm 1 mps 732 mmHg 88%
    04:00 -2°C° 0 mm 1 mps 731 mmHg 88%
    05:00 -2°C° 0 mm 1 mps 732 mmHg 88%
    06:00 -2°C° 0 mm 1 mps 732 mmHg 88%
    07:00 -2°C° 0 mm 1 mps 732 mmHg 88%
    08:00 -2°C° 0 mm 1 mps 732 mmHg 85%
    09:00 -1°C° 0 mm 1 mps 732 mmHg 82%
    10:00 0°C° 0 mm 1 mps 733 mmHg 79%
    11:00 +1°C° 0 mm 1 mps 733 mmHg 74%
    12:00 +2°C° 0 mm 1 mps 733 mmHg 70%
    13:00 +2°C° 0 mm 1 mps 733 mmHg 66%
    14:00 +2°C° 0 mm 1 mps 733 mmHg 68%
    15:00 +2°C° 0 mm 1 mps 733 mmHg 70%
    16:00 +1°C° 0 mm 1 mps 733 mmHg 72%
    17:00 +1°C° 0 mm 1 mps 734 mmHg 75%
    18:00 0°C° 0 mm 1 mps 734 mmHg 79%
    19:00 0°C° 0 mm 1 mps 735 mmHg 82%
    20:00 -1°C° 0 mm 1 mps 735 mmHg 82%
    21:00 -1°C° 0 mm 1 mps 735 mmHg 83%
    22:00 -1°C° 0 mm 1 mps 736 mmHg 84%
    23:00 -1°C° 0 mm 1 mps 736 mmHg 84%

    21 January, Monday

    Time Temperature Precipitation Wind Pressure Humidity
    00:00 -2°C° 0 mm 1 mps 736 mmHg 85%
    01:00 -2°C° 0 mm 1 mps 736 mmHg 85%
    02:00 -4°C° 0 mm 2 mps 736 mmHg 85%
    03:00 -4°C° 0 mm 2 mps 737 mmHg 85%
    04:00 -4°C° 0 mm 2 mps 737 mmHg 84%
    05:00 -4°C° 0 mm 2 mps 737 mmHg 83%
    06:00 -4°C° 0 mm 2 mps 737 mmHg 82%
    07:00 -4°C° 0 mm 2 mps 737 mmHg 81%
    08:00 -4°C° 0 mm 2 mps 738 mmHg 78%
    09:00 -4°C° 0 mm 3 mps 738 mmHg 74%
    10:00 -4°C° 0 mm 3 mps 738 mmHg 71%
    11:00 -2°C° 0 mm 3 mps 738 mmHg 66%
    12:00 -1°C° 0 mm 3 mps 738 mmHg 61%
    13:00 0°C° 0 mm 3 mps 738 mmHg 56%
    14:00 +1°C° 0 mm 2 mps 738 mmHg 57%
    15:00 -1°C° 0 mm 2 mps 738 mmHg 59%
    16:00 -1°C° 0 mm 2 mps 738 mmHg 61%
    17:00 -2°C° 0 mm 2 mps 738 mmHg 64%
    18:00 -3°C° 0 mm 2 mps 738 mmHg 67%
    19:00 -4°C° 0 mm 2 mps 738 mmHg 70%
    20:00 -4°C° 0 mm 2 mps 737 mmHg 71%
    21:00 -4°C° 0 mm 2 mps 737 mmHg 71%
    22:00 -2°C° 0 mm 1 mps 737 mmHg 72%
    23:00 -2°C° 0 mm 1 mps 737 mmHg 73%
    Show more